{"data":{"norad_id":66281,"intl_designator":"2025-247S","name":"STARLINK-35727","alt_names":[],"object_type":"PAYLOAD","status":"ACTIVE","operator":null,"country":"US","launch_date":"2025-10-31","launch_site_code":"AFWTR","launch_vehicle":null,"mission":null,"orbit_class":"UNKNOWN","rcs_meters":null,"size_class":null,"mass_kg":null,"dimensions":null,"purposes":["comms"],"wikipedia_slug":null,"has_3d_model":false,"image_url":null,"decayed_at":null,"tle_current":{"epoch":"2026-05-25T03:04:04.157760Z","epoch_age_seconds":74563,"freshness":"FRESH","line1":"1 66281U 25247S   26145.12782590  .00010880  00000+0  37886-3 0  9996","line2":"2 66281  53.1592 196.6099 0001339  85.8408 274.2746 15.30205667 32731","mean_motion":15.30205667,"eccentricity":0.0001339,"inclination_deg":53.1592,"raan_deg":196.6099,"arg_perigee_deg":85.8408,"mean_anomaly_deg":274.2746,"bstar":0.00037886,"rev_number":3273,"period_min":94.104997194472,"perigee_km":474.2804872546,"apogee_km":476.11581040746,"semimajor_km":6853.335148831,"source":"CELESTRAK","updated_at":"2026-05-25T13:38:21.163467Z"}}}